Simultaneous Nadir Overpasses (SNOs) Predictions

Prediction of SNOs between GOES-15 and METOP-C Satellite Orbit:

Table of predicted SNOs for the next 14.0 days since TLE Epoch: 4/27/2024
Index Date Time (GOES-15) GOES-15 Lat,Lon METOP-C Lat,Lon Distance(km) Time Diff (sec)
1 04/27/2024 05:11:06 -0.14, 61.38 -0.94, 64.80 390.54 80
2 04/28/2024 17:30:06 0.15, 61.38 -0.10, 60.22 132.40 80
3 04/29/2024 17:09:27 0.15, 61.40 0.98, 65.22 434.79 80
4 05/01/2024 05:25:40 -0.16, 61.45 0.01, 60.65 91.21 80
5 05/02/2024 05:07:41 -0.16, 61.47 -1.08, 65.65 475.98 80
6 05/03/2024 17:26:41 0.16, 61.47 0.06, 61.06 47.18 80
7 05/06/2024 05:22:14 -0.16, 61.55 -0.15, 61.50 6.04 80
8 05/08/2024 17:20:35 0.17, 61.58 0.26, 61.91 37.30 80
9 05/10/2024 05:42:06 -0.17, 61.65 0.78, 57.36 489.52 80
